Location: Torch Lake Township
(45.0753°N, 85.3586°W)
Time: 07:44:28
(UTC-05:00)

Amateur Radio Satellites - All Passes

Search period start: 04 March 2015 07:14
Search period end: 05 March 2015 07:14
Location: Torch Lake Township, 45.0753°N, 85.3586°W

Satellite Date Start Highest point End Downlink Frequencies (MHz)
Time Altitude Azimuth
JAS-2 04 Mar 07:38:42 07:43:00 16° 306° (NW) 07:47:08 435.910
AIST 1 04 Mar 07:48:11 07:52:34 77° 281° (W) 07:56:59
CUBESAT XI-V 04 Mar 07:49:03 07:51:50 15° 273° (W) 07:54:24 437.345
HO-68 04 Mar 07:49:40 07:51:40 12° 82° (E) 07:54:13 435.675
AO-7 04 Mar 08:06:57 08:10:46 14° 320° (NW) 08:14:14 29.400- 29.500
SO-50 04 Mar 08:12:48 08:15:12 14° 26° (NNE) 08:17:43 436.795
Cubesat XI-IV 04 Mar 08:15:32 08:20:14 31° 295° (WNW) 08:24:50 437.490
RS-15 04 Mar 08:16:25 08:27:52 81° 53° (NE) 08:39:51 29.354- 29.394
GOMX 1 04 Mar 08:16:53 08:18:01 11° 85° (E) 08:19:23 467.674
ISS 04 Mar 08:17:23 08:19:24 16° 135° (SE) 08:21:29 145.825
BRITE-PL 04 Mar 08:18:56 08:22:04 19° 89° (E) 08:25:12 437.365/2234.400
CUTE-I 04 Mar 08:24:12 08:28:40 27° 296° (WNW) 08:33:02 437.470
GONETS M04 04 Mar 08:29:13 08:37:20 41° 69° (ENE) 08:45:34
COMPASS 1 04 Mar 08:31:42 08:31:59 10° 86° (E) 08:32:32 437.405
DOVE 4 04 Mar 08:42:54 08:45:11 14° 88° (E) 08:47:35 437.250
SEEDS 04 Mar 08:58:53 09:02:22 25° 93° (E) 09:05:56 437.485
UNISAT 6 04 Mar 08:59:42 09:01:12 12° 61° (ENE) 09:02:54 437.425
CANX-2 04 Mar 09:04:29 09:08:27 37° 97° (E) 09:12:26 2200.000
TIGRISAT 04 Mar 09:22:15 09:25:17 19° 65° (ENE) 09:28:23 435.000
CUTE 1.7 + AOD 2 04 Mar 09:22:42 09:26:53 53° 99° (E) 09:31:04 437.475
DELFI C3 04 Mar 09:24:13 09:25:59 13° 88° (E) 09:27:56 145.870
HO-68 04 Mar 09:33:47 09:40:58 67° 103° (ESE) 09:48:08 435.675
O/OREOS (USA 219) 04 Mar 09:35:41 09:40:12 65° 111° (ESE) 09:44:46 437.305
ANTELSAT 04 Mar 09:36:08 09:39:45 26° 67° (ENE) 09:43:23 437.575/2403.000
POPSAT HIP 1 04 Mar 09:37:43 09:40:18 16° 63° (ENE) 09:43:02 437.405
POLYITAN 1 04 Mar 09:38:00 09:40:39 17° 64° (ENE) 09:43:26 437.675
UWE-3 04 Mar 09:43:19 09:45:51 16° 90° (E) 09:48:33 435.000/436.395/437.385
SO-50 04 Mar 09:52:08 09:56:57 50° 48° (NE) 10:01:45 436.795
ISS 04 Mar 09:52:17 09:55:30 78° 332° (NNW) 09:58:45 145.825
GOMX 1 04 Mar 09:52:30 09:56:54 70° 286° (WNW) 10:01:04 467.674
BRITE-PL 04 Mar 09:56:38 10:00:59 43° 290° (WNW) 10:05:02 437.365/2234.400
NANOSAT C BR1 04 Mar 09:59:08 10:02:39 26° 67° (ENE) 10:06:13 145.865
AAUSAT CUBESAT 2 04 Mar 10:00:08 10:04:21 84° 102° (ESE) 10:08:34 437.432
COMPASS 1 04 Mar 10:04:06 10:08:20 77° 284° (WNW) 10:12:33 437.405
Oscar 11 04 Mar 10:05:09 10:09:19 45° 98° (E) 10:13:30 145.826/435.025
CINEMA 3 04 Mar 10:14:19 10:18:30 75° 102° (ESE) 10:22:39 145.822/145.860
DOVE 4 04 Mar 10:19:15 10:23:26 52° 288° (WNW) 10:27:28 437.250
CUBEBUG 2 04 Mar 10:23:23 10:27:27 51° 99° (E) 10:31:32 437.445
50 SAT 04 Mar 10:25:08 10:26:58 13° 89° (E) 10:28:59 437.505
GONETS M04 04 Mar 10:26:06 10:34:24 49° 271° (W) 10:42:39
RS-15 04 Mar 10:29:43 10:39:25 32° 254° (WSW) 10:49:05 29.354- 29.394
QB50P1 04 Mar 10:31:39 10:35:51 55° 73° (ENE) 10:40:03 145.935-145.965
DX 1 04 Mar 10:32:29 10:36:38 40° 98° (E) 10:40:45 434.975-435.025
BUGSAT 1 04 Mar 10:33:00 10:37:02 43° 71° (ENE) 10:41:07 437.445
UNISAT 6 04 Mar 10:33:05 10:37:28 81° 255° (WSW) 10:41:49 437.425
SEEDS 04 Mar 10:34:29 10:38:15 31° 291° (WNW) 10:41:58 437.485
QB50P2 04 Mar 10:36:05 10:40:19 63° 74° (ENE) 10:44:35 145.880/145.840
DANDE 04 Mar 10:38:39 10:40:01 13° 68° (ENE) 10:41:26 436.750
CANX-2 04 Mar 10:40:53 10:44:14 22° 293° (WNW) 10:47:29 2200.000
AISAT 04 Mar 10:44:11 10:47:45 24° 93° (E) 10:51:22 437.250
HUMSAT D 04 Mar 10:45:02 10:48:43 32° 96° (E) 10:52:26 437.325/437.525
DUCHIFAT 1 04 Mar 10:49:33 10:53:50 84° 76° (ENE) 10:58:08 145.980
VELOX 1 04 Mar 10:52:40 10:56:30 28° 95° (E) 11:00:21 145.980
FUNcube-1 04 Mar 10:53:28 10:57:38 75° 103° (ESE) 11:01:48 145.935
ZACube-1 04 Mar 10:55:22 10:59:33 80° 102° (ESE) 11:03:44 437.345
CUSAT 1 04 Mar 10:57:07 10:59:33 33° 75° (ENE) 11:02:01 437.405
TIGRISAT 04 Mar 10:57:33 11:01:47 46° 261° (W) 11:05:57 435.000
DELFI C3 04 Mar 10:57:36 11:01:38 59° 286° (WNW) 11:05:39 145.870
UKube-1 04 Mar 10:59:40 11:04:02 76° 103° (ESE) 11:08:22 .
CUTE 1.7 + AOD 2 04 Mar 10:59:44 11:02:28 16° 296° (WNW) 11:05:04 437.475
POPSAT HIP 1 04 Mar 11:11:36 11:15:49 55° 260° (W) 11:20:03 437.405
POLYITAN 1 04 Mar 11:12:01 11:16:15 54° 260° (W) 11:20:27 437.675
ANTELSAT 04 Mar 11:12:33 11:16:30 31° 264° (W) 11:20:21 437.575/2403.000
ESTCUBE 1 04 Mar 11:14:57 11:18:40 25° 93° (E) 11:22:27 437.505/2401.250
O/OREOS (USA 219) 04 Mar 11:17:00 11:20:09 18° 311° (NW) 11:23:12 437.305
UWE-3 04 Mar 11:18:44 11:22:45 46° 288° (WNW) 11:26:44 435.000/436.395/437.385
HO-68 04 Mar 11:22:16 11:28:14 28° 302° (WNW) 11:34:03 435.675
ISS 04 Mar 11:29:28 11:32:17 27° 351° (N) 11:35:07 145.825
SO-50 04 Mar 11:33:11 11:37:18 26° 246° (WSW) 11:41:17 436.795
NANOSAT C BR1 04 Mar 11:34:34 11:38:26 32° 264° (W) 11:42:16 145.865
AAUSAT CUBESAT 2 04 Mar 11:38:13 11:39:26 11° 299° (WNW) 11:40:27 437.432
Oscar 11 04 Mar 11:42:05 11:45:15 19° 295° (WNW) 11:48:17 145.826/435.025
CINEMA 3 04 Mar 11:53:38 11:55:13 12° 299° (WNW) 11:56:34 145.822/145.860
50 SAT 04 Mar 11:58:30 12:02:23 53° 286° (WNW) 12:06:13 437.505
CUBEBUG 2 04 Mar 12:01:14 12:03:50 16° 296° (WNW) 12:06:18 437.445
DX 1 04 Mar 12:09:16 12:12:40 22° 295° (WNW) 12:15:57 434.975-435.025
QB50P1 04 Mar 12:09:36 12:12:08 15° 271° (W) 12:14:31 145.935-145.965
BUGSAT 1 04 Mar 12:09:38 12:12:46 19° 269° (W) 12:15:47 437.445
QB50P2 04 Mar 12:14:35 12:16:44 13° 272° (W) 12:18:40 145.880/145.840
CUBEBUG 1 04 Mar 12:17:15 12:21:42 84° 285° (WNW) 12:26:04 437.445
AISAT 04 Mar 12:20:23 12:24:30 36° 291° (WNW) 12:28:32 437.250
HUMSAT D 04 Mar 12:21:04 12:24:25 24° 293° (WNW) 12:27:41 437.325/437.525
DANDE 04 Mar 12:21:46 12:23:19 14° 268° (W) 12:24:47 436.750
VELOX 1 04 Mar 12:29:08 12:33:06 31° 292° (WNW) 12:36:58 145.980
FUNcube-1 04 Mar 12:31:54 12:33:29 12° 298° (WNW) 12:34:53 145.935
ZACube-1 04 Mar 12:34:06 12:35:24 11° 299° (WNW) 12:36:30 437.345
Oscar 19 04 Mar 12:35:27 12:40:08 38° 68° (ENE) 12:44:53 437.125/150
UKube-1 04 Mar 12:37:37 12:39:40 13° 300° (WNW) 12:41:33 .
TISAT 1 04 Mar 12:39:43 12:43:41 39° 98° (E) 12:47:39 437.305
ITAMSAT 1 04 Mar 12:39:44 12:42:53 17° 59° (ENE) 12:46:12 435.822/435.867
SPROUT 04 Mar 12:42:16 12:46:26 47° 99° (E) 12:50:34 437.525
ESTCUBE 1 04 Mar 12:51:28 12:55:41 36° 291° (WNW) 12:59:50 437.505/2401.250
ISS 04 Mar 13:06:28 13:09:20 28° 11° (N) 13:12:13 145.825
SWISSCUBE 04 Mar 13:09:22 13:12:10 16° 89° (E) 13:15:09 437.505
BEESAT 04 Mar 13:17:24 13:20:30 17° 90° (E) 13:23:46 436.000
AO-7 04 Mar 13:31:41 13:36:40 18° 45° (NE) 13:41:56 29.400- 29.500
ITUPSAT 1 04 Mar 13:45:11 13:49:27 31° 95° (E) 13:53:45 437.325
CUBEBUG 1 04 Mar 13:56:29 13:57:24 10° 301° (WNW) 13:58:05 437.445
Gurwin Techsat 1B 04 Mar 14:00:02 14:05:13 58° 72° (ENE) 14:10:29 435.225
HORYU 2 04 Mar 14:03:23 14:06:06 17° 63° (ENE) 14:08:58 437.375
Oscar 19 04 Mar 14:15:06 14:19:35 29° 266° (W) 14:24:02 437.125/150
TISAT 1 04 Mar 14:16:04 14:19:18 21° 294° (WNW) 14:22:25 437.305
ITAMSAT 1 04 Mar 14:16:35 14:21:49 78° 256° (WSW) 14:27:06 435.822/435.867
SPROUT 04 Mar 14:19:12 14:22:13 18° 296° (WNW) 14:25:07 437.525
JAS-2 04 Mar 14:25:12 14:27:53 14° 51° (NE) 14:30:58 435.910
KKS-1 04 Mar 14:34:44 14:37:56 20° 92° (E) 14:41:15 437.445
STARS 04 Mar 14:37:28 14:39:34 14° 88° (E) 14:41:53 437.465
ISS 04 Mar 14:42:49 14:46:04 89° 213° (SSW) 14:49:19 145.825
SWISSCUBE 04 Mar 14:45:46 14:50:33 64° 287° (WNW) 14:55:18 437.505
BEESAT 04 Mar 14:54:04 14:58:48 57° 288° (WNW) 15:03:30 436.000
AO-7 04 Mar 15:19:53 15:28:05 67° 67° (ENE) 15:36:21 29.400- 29.500
ITUPSAT 1 04 Mar 15:23:02 15:27:21 32° 293° (WNW) 15:31:36 437.325
YUBILEINY 04 Mar 15:24:54 15:32:02 30° 83° (E) 15:39:25 435.215
HORYU 2 04 Mar 15:38:01 15:42:23 58° 259° (W) 15:46:46 437.375
Gurwin Techsat 1B 04 Mar 15:41:43 15:45:40 20° 270° (W) 15:49:28 435.225
JAS-2 04 Mar 16:06:13 16:11:47 73° 73° (ENE) 16:18:08 435.910
KKS-1 04 Mar 16:10:37 16:14:51 43° 289° (WNW) 16:19:02 437.445
STARS 04 Mar 16:12:12 16:16:34 63° 287° (WNW) 16:20:53 437.465
M-CUBED/EXP-1 PRIME 04 Mar 16:20:06 16:22:31 15° 96° (E) 16:25:11 437.505
BEESAT 2 04 Mar 16:20:20 16:21:45 12° 110° (ESE) 16:23:23 435.950
ISS 04 Mar 16:20:26 16:22:07 13° 226° (SW) 16:23:41 145.825
AUBIESAT-1 04 Mar 16:20:38 16:22:42 13° 95° (E) 16:25:02 437.475
Cubesat XI-IV 04 Mar 16:22:52 16:25:10 13° 56° (ENE) 16:27:42 437.490
CUTE-I 04 Mar 16:30:35 16:33:27 15° 58° (ENE) 16:36:31 437.470
AO-7 04 Mar 17:14:21 17:21:33 30° 267° (W) 17:28:34 29.400- 29.500
YUBILEINY 04 Mar 17:19:38 17:28:19 64° 283° (WNW) 17:37:05 435.215
BEESAT 3 04 Mar 17:27:25 17:31:29 66° 122° (ESE) 17:35:37 437.485
MOZHAYETS 4 04 Mar 17:36:15 17:40:55 81° 103° (ESE) 17:45:34
VERMONT LUNAR 04 Mar 17:41:53 17:44:43 23° 162° (SSE) 17:47:34 437.305
M-CUBED/EXP-1 PRIME 04 Mar 17:53:33 17:57:46 64° 291° (WNW) 18:02:17 437.505
AIST 1 04 Mar 17:53:39 17:57:36 32° 73° (ENE) 18:01:34
AUBIESAT-1 04 Mar 17:53:41 17:57:57 71° 290° (WNW) 18:02:30 437.475
JAS-2 04 Mar 17:54:03 17:57:53 18° 276° (W) 18:01:43 435.910
BEESAT 2 04 Mar 17:55:15 17:59:23 78° 306° (NW) 18:03:35 435.950
Cubesat XI-IV 04 Mar 17:59:07 18:04:29 79° 75° (ENE) 18:09:55 437.490
PHONESAT 2.4 04 Mar 18:00:54 18:03:35 20° 158° (SSE) 18:06:18 2401.200-2431.200
AIST 2 04 Mar 18:04:22 18:08:30 53° 120° (ESE) 18:12:42 435.215
O/OREOS (USA 219) 04 Mar 18:05:01 18:08:38 23° 52° (NE) 18:12:19 437.305
CUBESAT XI-V 04 Mar 18:05:32 18:08:01 14° 87° (E) 18:10:40 437.345
CUTE-I 04 Mar 18:07:28 18:12:51 90° 252° (WSW) 18:18:17 437.470
HO-68 04 Mar 18:21:19 18:24:37 14° 48° (NE) 18:28:14 435.675
STRAND 1 04 Mar 19:00:55 19:05:25 30° 94° (E) 19:09:58 437.568
BEESAT 3 04 Mar 19:06:58 19:10:00 19° 322° (NW) 19:13:00 437.485
MOZHAYETS 4 04 Mar 19:15:19 19:17:35 13° 299° (WNW) 19:19:40
VERMONT LUNAR 04 Mar 19:18:55 19:22:12 38° 178° (S) 19:25:29 437.305
YUBILEINY 04 Mar 19:22:39 19:27:28 15° 309° (NW) 19:31:48 435.215
GOMX 1 04 Mar 19:25:17 19:29:07 21° 65° (ENE) 19:32:56 467.674
COMPASS 1 04 Mar 19:25:50 19:26:21 10° 61° (ENE) 19:27:04 437.405
BRITE-PL 04 Mar 19:30:18 19:35:15 34° 69° (ENE) 19:40:02 437.365/2234.400
PRISM 04 Mar 19:31:03 19:35:18 80° 285° (WNW) 19:39:31 437.425
AIST 1 04 Mar 19:31:32 19:35:11 25° 271° (W) 19:38:42
BEESAT 2 04 Mar 19:35:57 19:38:19 14° 327° (NNW) 19:40:35 435.950
PHONESAT 2.4 04 Mar 19:38:09 19:41:33 38° 174° (S) 19:44:58 2401.200-2431.200
CUBESAT XI-V 04 Mar 19:41:19 19:46:02 67° 286° (WNW) 19:50:41 437.345
Cubesat XI-IV 04 Mar 19:42:14 19:45:20 15° 273° (W) 19:48:12 437.490
O/OREOS (USA 219) 04 Mar 19:43:55 19:48:21 46° 252° (WSW) 19:52:42 437.305
AIST 2 04 Mar 19:43:55 19:47:24 23° 320° (NW) 19:50:52 435.215
CINEMA 3 04 Mar 19:44:21 19:45:40 11° 61° (ENE) 19:47:11 145.822/145.860
DOVE 4 04 Mar 19:49:37 19:53:34 24° 67° (ENE) 19:57:27 437.250
CUTE-I 04 Mar 19:51:25 19:53:49 12° 275° (W) 19:55:55 437.470
PCSat 04 Mar 19:52:57 19:57:02 23° 108° (ESE) 20:01:16 145.827
SEEDS 04 Mar 19:53:23 19:56:42 24° 67° (ENE) 20:00:05 437.485
CANX-2 04 Mar 19:59:36 20:03:24 34° 70° (ENE) 20:07:15 2200.000
HO-68 04 Mar 20:04:05 20:11:04 61° 68° (ENE) 20:18:08 435.675
DELFI C3 04 Mar 20:15:19 20:16:37 12° 62° (ENE) 20:18:06 145.870
CUTE 1.7 + AOD 2 04 Mar 20:17:34 20:21:37 49° 72° (ENE) 20:25:43 437.475
UKube-1 04 Mar 20:24:47 20:25:14 10° 58° (ENE) 20:25:55 .
STRAND 1 04 Mar 20:39:58 20:44:42 37° 293° (WNW) 20:49:22 437.568
UWE-3 04 Mar 20:42:41 20:45:43 19° 66° (ENE) 20:48:49 435.000/436.395/437.385
AAUSAT CUBESAT 2 04 Mar 20:52:57 20:57:04 73° 76° (ENE) 21:01:14 437.432
VERMONT LUNAR 04 Mar 20:56:41 20:59:43 28° 195° (SSW) 21:02:45 437.305
COMPASS 1 04 Mar 20:57:19 21:01:28 88° 256° (WSW) 21:05:40 437.405
GOMX 1 04 Mar 21:01:41 21:06:56 57° 260° (W) 21:11:56 467.674
Oscar 11 04 Mar 21:01:51 21:05:56 45° 72° (ENE) 21:10:05 145.826/435.025
BRITE-PL 04 Mar 21:08:31 21:13:43 37° 264° (W) 21:18:39 437.365/2234.400
50 SAT 04 Mar 21:14:49 21:16:13 12° 63° (ENE) 21:17:49 437.505
PHONESAT 2.4 04 Mar 21:16:19 21:19:39 34° 191° (S) 21:22:58 2401.200-2431.200
CINEMA 3 04 Mar 21:17:35 21:22:20 87° 80° (E) 21:26:53 145.822/145.860
CUBEBUG 2 04 Mar 21:23:26 21:27:50 57° 73° (ENE) 21:32:05 437.445
DOVE 4 04 Mar 21:26:14 21:31:09 46° 262° (W) 21:35:48 437.250
SEEDS 04 Mar 21:28:35 21:32:24 33° 264° (W) 21:36:12 437.485
DX 1 04 Mar 21:29:55 21:34:07 46° 71° (ENE) 21:38:21 434.975-435.025
GONETS M04 04 Mar 21:33:01 21:40:56 43° 88° (E) 21:49:00
PCSat 04 Mar 21:34:44 21:40:05 59° 306° (NW) 21:45:28 145.827
CANX-2 04 Mar 21:36:05 21:39:28 22° 268° (W) 21:42:46 2200.000
HUMSAT D 04 Mar 21:39:08 21:42:47 30° 69° (ENE) 21:46:26 437.325/437.525
CUBEBUG 1 04 Mar 21:41:54 21:43:46 13° 61° (ENE) 21:45:50 437.445
AISAT 04 Mar 21:44:05 21:47:55 29° 67° (ENE) 21:51:49 437.250
DELFI C3 04 Mar 21:47:17 21:51:19 73° 258° (WSW) 21:55:22 145.870
FUNcube-1 04 Mar 21:51:06 21:55:25 76° 75° (ENE) 21:59:41 145.935
VELOX 1 04 Mar 21:52:18 21:56:18 33° 69° (ENE) 22:00:22 145.980
ZACube-1 04 Mar 21:53:11 21:57:32 81° 74° (ENE) 22:01:48 437.345
HO-68 04 Mar 21:53:14 21:59:19 28° 268° (W) 22:05:15 435.675
CUTE 1.7 + AOD 2 04 Mar 21:55:12 21:57:54 16° 270° (W) 22:00:28 437.475
UKube-1 04 Mar 21:56:22 22:00:44 83° 75° (ENE) 22:05:07 .
ESTCUBE 1 04 Mar 22:16:39 22:20:32 30° 67° (ENE) 22:24:31 437.505/2401.250
UWE-3 04 Mar 22:17:46 22:22:01 46° 261° (W) 22:26:10 435.000/436.395/437.385
UNISAT 6 04 Mar 22:24:02 22:26:51 17° 91° (E) 22:29:49 437.425
AAUSAT CUBESAT 2 04 Mar 22:32:26 22:33:20 10° 274° (W) 22:34:00 437.432
DUCHIFAT 1 04 Mar 22:34:48 22:36:12 12° 87° (E) 22:37:49 145.980
VERMONT LUNAR 04 Mar 22:36:41 22:36:58 10° 210° (SSW) 22:37:10 437.305
Oscar 11 04 Mar 22:39:22 22:42:25 18° 269° (W) 22:45:20 145.826/435.025
RS-15 04 Mar 22:43:19 22:52:59 40° 110° (ESE) 23:02:58 29.354- 29.394
50 SAT 04 Mar 22:46:48 22:50:46 68° 258° (WSW) 22:54:43 437.505
TIGRISAT 04 Mar 22:47:19 22:51:02 29° 95° (E) 22:54:51 435.000
PHONESAT 2.4 04 Mar 22:55:26 22:57:32 15° 206° (SSW) 22:59:35 2401.200-2431.200
POPSAT HIP 1 04 Mar 22:55:43 22:58:50 20° 92° (E) 23:02:02 437.405
POLYITAN 1 04 Mar 22:56:21 22:59:32 21° 92° (E) 23:02:47 437.675
CINEMA 3 04 Mar 22:59:13 23:00:13 10° 274° (W) 23:00:54 145.822/145.860
ANTELSAT 04 Mar 23:01:59 23:06:04 42° 98° (E) 23:10:15 437.575/2403.000
CUBEBUG 2 04 Mar 23:02:18 23:04:55 15° 271° (W) 23:07:21 437.445
DX 1 04 Mar 23:07:30 23:10:39 18° 269° (W) 23:13:41 434.975-435.025
HUMSAT D 04 Mar 23:15:05 23:18:36 25° 266° (W) 23:22:01 437.325/437.525
CUBEBUG 1 04 Mar 23:15:08 23:19:35 80° 257° (WSW) 23:24:04 437.445
NANOSAT C BR1 04 Mar 23:17:27 23:21:19 34° 97° (E) 23:25:09 145.865
AISAT 04 Mar 23:20:27 23:24:30 31° 265° (W) 23:28:30 437.250
PCSat 04 Mar 23:21:41 23:24:45 15° 329° (NNW) 23:27:41 145.827
VELOX 1 04 Mar 23:29:06 23:32:56 27° 266° (W) 23:36:44 145.980
GONETS M04 04 Mar 23:29:31 23:37:48 46° 289° (WNW) 23:46:03
FUNcube-1 04 Mar 23:31:14 23:32:22 11° 273° (W) 23:33:15 145.935
TISAT 1 04 Mar 23:33:55 23:37:54 39° 70° (ENE) 23:41:55 437.305
SPROUT 04 Mar 23:38:17 23:42:26 47° 72° (ENE) 23:46:38 437.525
BUGSAT 1 04 Mar 23:48:46 23:52:52 55° 100° (E) 23:56:53 437.445
DANDE 04 Mar 23:50:30 23:56:18 37° 97° (E) 00:00:49 436.750
QB50P1 04 Mar 23:50:41 23:54:57 80° 103° (ESE) 23:59:09 145.935-145.965
ESTCUBE 1 04 Mar 23:53:21 23:57:24 31° 265° (W) 00:01:25 437.505/2401.250
QB50P2 04 Mar 23:55:23 23:59:39 90° 285° (WNW) 00:03:52 145.880/145.840
UNISAT 6 04 Mar 23:59:49 00:03:58 47° 288° (WNW) 00:08:08 437.425
CUSAT 1 05 Mar 00:06:17 00:12:07 61° 99° (E) 00:16:28 437.405
BEESAT 3 05 Mar 00:08:01 00:10:12 14° 33° (NNE) 00:12:28 437.485
DUCHIFAT 1 05 Mar 00:08:24 00:12:37 68° 285° (WNW) 00:16:46 145.980
SWISSCUBE 05 Mar 00:17:45 00:21:29 24° 65° (ENE) 00:25:20 437.505
TIGRISAT 05 Mar 00:24:06 00:27:48 28° 292° (WNW) 00:31:27 435.000
BEESAT 05 Mar 00:25:45 00:29:38 26° 65° (ENE) 00:33:37 436.000
POPSAT HIP 1 05 Mar 00:30:58 00:34:55 38° 290° (WNW) 00:38:49 437.405
POLYITAN 1 05 Mar 00:31:43 00:35:38 37° 290° (WNW) 00:39:31 437.675
BEESAT 2 05 Mar 00:35:46 00:38:46 19° 38° (NE) 00:41:49 435.950
ANTELSAT 05 Mar 00:39:28 00:42:40 20° 295° (WNW) 00:45:48 437.575/2403.000
AIST 2 05 Mar 00:47:08 00:49:11 13° 31° (NNE) 00:51:21 435.215
Oscar 19 05 Mar 00:47:34 00:48:30 11° 85° (E) 00:49:47 437.125/150
NANOSAT C BR1 05 Mar 00:53:37 00:57:03 24° 293° (WNW) 01:00:22 145.865
ITUPSAT 1 05 Mar 00:53:53 00:58:26 45° 70° (ENE) 01:03:02 437.325
RS-15 05 Mar 00:54:02 01:04:53 66° 313° (NW) 01:15:58 29.354- 29.394
TISAT 1 05 Mar 01:10:36 01:13:53 21° 268° (W) 01:17:06 437.305
SPROUT 05 Mar 01:15:50 01:18:50 18° 270° (W) 01:21:43 437.525
BUGSAT 1 05 Mar 01:25:28 01:27:58 15° 297° (WNW) 01:30:19 437.445
QB50P1 05 Mar 01:28:42 01:30:17 12° 299° (WNW) 01:31:40 145.935-145.965
YUBILEINY 05 Mar 01:31:59 01:37:12 17° 53° (NE) 01:42:51 435.215
QB50P2 05 Mar 01:34:10 01:34:57 10° 300° (WNW) 01:35:31 145.880/145.840
DANDE 05 Mar 01:34:12 01:39:38 30° 286° (WNW) 01:43:50 436.750
KKS-1 05 Mar 01:34:57 01:38:30 24° 66° (ENE) 01:42:09 437.445
STARS 05 Mar 01:36:29 01:39:17 17° 63° (ENE) 01:42:14 437.465
BEESAT 3 05 Mar 01:44:53 01:49:02 76° 53° (NE) 01:53:08 437.485
SO-50 05 Mar 01:48:35 01:53:10 69° 122° (ESE) 01:57:56 436.795
CUSAT 1 05 Mar 01:51:37 01:55:03 16° 290° (WNW) 01:57:51 437.405
SWISSCUBE 05 Mar 01:54:33 01:59:07 44° 261° (W) 02:03:44 437.505
BEESAT 05 Mar 02:02:50 02:07:20 40° 263° (W) 02:11:50 436.000
BEESAT 2 05 Mar 02:13:15 02:17:24 66° 237° (WSW) 02:21:28 435.950
Gurwin Techsat 1B 05 Mar 02:15:04 02:18:48 20° 90° (E) 02:22:42 435.225
Oscar 19 05 Mar 02:23:37 02:28:47 84° 103° (ESE) 02:33:56 437.125/150
AIST 2 05 Mar 02:24:24 02:28:41 65° 52° (NE) 02:32:52 435.215
ITAMSAT 1 05 Mar 02:27:46 02:32:25 32° 95° (E) 02:37:05 435.822/435.867
ITUPSAT 1 05 Mar 02:32:49 02:36:36 22° 268° (W) 02:40:16 437.325
MOZHAYETS 4 05 Mar 03:06:17 03:08:01 12° 60° (ENE) 03:09:57
RS-15 05 Mar 03:10:29 03:19:55 31° 344° (NNW) 03:29:31 29.354- 29.394
KKS-1 05 Mar 03:10:50 03:15:00 37° 263° (W) 03:19:10 437.445
STARS 05 Mar 03:11:03 03:15:24 55° 260° (W) 03:19:46 437.465
AUBIESAT-1 05 Mar 03:11:25 03:13:47 18° 60° (ENE) 03:16:19 437.475
M-CUBED/EXP-1 PRIME 05 Mar 03:11:27 03:13:59 20° 61° (ENE) 03:16:40 437.505
JAS-2 05 Mar 03:15:19 03:17:32 12° 80° (E) 03:20:23 435.910
AO-7 05 Mar 03:20:54 03:25:49 17° 86° (E) 03:31:10 29.400- 29.500
BEESAT 3 05 Mar 03:24:58 03:26:36 12° 250° (WSW) 03:28:01 437.485
YUBILEINY 05 Mar 03:27:10 03:36:03 73° 79° (E) 03:44:52 435.215
HORYU 2 05 Mar 03:27:53 03:31:23 23° 93° (E) 03:34:59 437.375
SO-50 05 Mar 03:30:27 03:34:13 23° 324° (NW) 03:38:00 436.795
Gurwin Techsat 1B 05 Mar 03:54:00 03:59:16 59° 289° (WNW) 04:04:29 435.225
AIST 2 05 Mar 04:04:21 04:06:50 15° 249° (WSW) 04:09:08 435.215
Oscar 19 05 Mar 04:04:37 04:07:32 15° 301° (WNW) 04:10:16 437.125/150
ITAMSAT 1 05 Mar 04:07:12 04:11:58 36° 293° (WNW) 04:16:39 435.822/435.867
PCSat 05 Mar 04:37:34 04:42:25 32° 45° (NE) 04:47:16 145.827
MOZHAYETS 4 05 Mar 04:40:04 04:44:38 86° 259° (WSW) 04:49:15
AUBIESAT-1 05 Mar 04:45:31 04:48:31 30° 258° (WSW) 04:51:39 437.475
M-CUBED/EXP-1 PRIME 05 Mar 04:45:58 04:48:51 26° 259° (W) 04:51:50 437.505
PRISM 05 Mar 04:51:19 04:52:26 11° 60° (ENE) 04:53:46 437.425
JAS-2 05 Mar 04:56:41 05:04:07 61° 100° (E) 05:11:54 435.910
HORYU 2 05 Mar 05:04:04 05:08:13 38° 291° (WNW) 05:12:19 437.375
CUBESAT XI-V 05 Mar 05:10:54 05:14:07 19° 64° (ENE) 05:17:28 437.345
AO-7 05 Mar 05:11:42 05:20:04 82° 107° (ESE) 05:28:23 29.400- 29.500
YUBILEINY 05 Mar 05:25:05 05:32:08 27° 279° (W) 05:38:53 435.215
RS-15 05 Mar 05:27:05 05:36:39 31° 18° (NNE) 05:46:41 29.354- 29.394
Cubesat XI-IV 05 Mar 06:14:58 06:19:26 27° 93° (E) 06:23:58 437.490
STRAND 1 05 Mar 06:18:34 06:23:33 54° 71° (ENE) 06:28:36 437.568
PCSat 05 Mar 06:20:50 06:26:02 47° 246° (WSW) 06:31:11 145.827
CUTE-I 05 Mar 06:23:00 06:27:42 31° 94° (E) 06:32:27 437.470
PRISM 05 Mar 06:23:12 06:27:21 83° 254° (WSW) 06:31:35 437.425
AIST 1 05 Mar 06:26:26 06:29:14 17° 87° (E) 06:32:12
JAS-2 05 Mar 06:42:18 06:48:49 34° 297° (WNW) 06:55:31 435.910
CUBESAT XI-V 05 Mar 06:46:35 06:51:12 55° 261° (W) 06:55:51 437.345
